Location: Doughton Park
(36.4224°N, 81.1835°W)
Time: 23:31:44
(UTC-04:00)

ISS - All Passes

Search period start: 28 April 2017 00:00
Search period end: 08 May 2017 00:00
Orbit: 401 x 409 km, 51.6° (Epoch: 29 April)

Date Brightness Start Highest point End Pass type
(mag) Time Alt. Az. Time Alt. Az. Time Alt. Az.
28 Apr - 07:02:24 10° SE 07:03:19 11° SE 07:04:15 10° ESE daylight
28 Apr - 08:36:11 10° WSW 08:39:24 59° NW 08:42:38 10° NE daylight
28 Apr - 10:15:27 10° NW 10:16:28 11° NNW 10:17:29 10° N daylight
28 Apr - 13:31:52 10° NNE 13:32:12 10° NNE 13:32:31 10° NNE daylight
28 Apr - 15:06:09 10° NW 15:09:20 49° NE 15:12:30 10° ESE daylight
28 Apr - 16:43:53 10° W 16:45:29 13° SW 16:47:06 10° SSW daylight
29 Apr - 07:44:11 10° SW 07:47:25 64° SE 07:50:39 10° NE daylight
29 Apr - 09:22:03 10° WNW 09:24:11 16° NNW 09:26:19 10° NNE daylight
29 Apr - 14:14:24 10° NNW 14:17:14 27° NNE 14:20:03 10° E daylight
29 Apr - 15:50:53 10° WNW 15:53:40 26° SW 15:56:27 10° S daylight
30 Apr - 06:52:37 10° SSW 06:55:30 29° SE 06:58:23 10° ENE daylight
30 Apr - 08:29:11 10° W 08:31:58 25° NNW 08:34:45 10° NNE daylight
30 Apr - 13:22:48 10° NNW 13:25:01 17° NNE 13:27:15 10° ENE daylight
30 Apr - 14:58:33 10° WNW 15:01:45 57° SW 15:04:57 10° SE daylight
01 May - 06:01:46 10° SSE 06:03:38 14° SE 06:05:31 10° E visible
01 May - 07:36:41 10° WSW 07:39:50 45° NW 07:42:59 10° NE daylight
01 May - 12:31:31 10° N 12:32:44 12° NNE 12:33:55 10° NE daylight
01 May - 14:06:30 10° NW 14:09:45 65° NE 14:12:58 10° ESE daylight
02 May - 06:44:30 10° SW 06:47:46 86° SE 06:51:02 10° NE daylight
02 May - 08:22:51 10° WNW 08:24:39 14° NNW 08:26:27 10° N daylight
02 May - 13:14:38 10° NNW 13:17:38 33° NE 13:20:37 10° ESE daylight
02 May - 14:51:29 10° W 14:53:58 20° SW 14:56:26 10° S daylight
03 May - 05:52:42 10° SSW 05:55:47 38° SE 05:58:51 10° ENE visible
03 May - 07:29:47 10° W 07:32:21 21° NNW 07:34:56 10° NNE daylight
03 May - 12:22:56 10° NNW 12:25:25 20° NNE 12:27:55 10° E daylight
03 May - 13:58:57 10° WNW 14:02:02 42° SW 14:05:08 10° SSE daylight
04 May - 05:01:29 10° S 05:03:51 19° SE 05:06:15 10° E visible
04 May - 06:37:07 10° WSW 06:40:09 35° NW 06:43:13 10° NNE daylight
04 May - 11:31:27 10° N 11:33:07 13° NNE 11:34:48 10° NE daylight
04 May - 13:06:46 10° NW 13:10:02 87° NE 13:13:17 10° SE daylight
05 May - 05:44:45 10° SW 05:48:02 72° NW 05:51:17 10° NE visible
05 May - 07:23:36 10° NW 07:25:01 12° NNW 07:26:24 10° N daylight
05 May - 12:14:48 10° NW 12:17:55 41° NE 12:21:01 10° ESE daylight
05 May - 13:52:06 10° W 13:54:08 16° SW 13:56:10 10° SSW daylight
06 May - 04:52:47 10° SSW 04:55:58 52° SE 04:59:09 10° ENE visible
06 May - 06:30:19 10° WNW 06:32:39 18° NNW 06:34:59 10° NNE daylight
06 May - 11:22:59 10° NNW 11:25:42 24° NNE 11:28:24 10° E daylight
06 May - 12:59:16 10° WNW 13:02:12 31° SW 13:05:08 10° SSE daylight
07 May - 04:01:14 10° S 04:03:59 24° SE 04:06:42 10° ENE visible
07 May - 05:37:28 10° W 05:40:22 29° NW 05:43:17 10° NNE visible
07 May - 10:31:21 10° NNW 10:33:23 15° NNE 10:35:25 10° ENE daylight
07 May - 12:06:56 10° NW 12:10:11 70° SW 12:13:25 10° SE daylight
